RH
97 90 71 49 41 36 36 41 47 54 59 61 60 57 58 64 67 63 57 55 48 47 50 45 52 53 61 61 59 71 78 62 70 72 81 75 85 75 80 75 76 76 87 85 84 95 86 65 75 94 92 95 97 79
98 98 76 68 66 53 42 40 39 46 53 57 60 61 58 56 64 63 53 53 53 51 44 41 47 58 58 57 64 71 76 84 98 85 78 91 92 95 96 100 91 94 81 81 79 76 72 78 88 82 85 97 83 81
98 92 72 95 90 82 61 52 49 44 44 57 59 56 58 50 49 52 49 49 56 55 46 45 44 55 58 63 65 69 67 72 76 85 95 100 100 97 100 98 99 96 90 93 99 63 78 77 67 75 98 100 100 99
98 99 96 91 93 91 87 79 75 60 50 52 56 56 60 55 54 65 61 52 62 88 69 48 57 61 64 61 68 82 83 79 87 96 98 98 99 99 100 99 100 96 99 96 90 72 77 78 94 100 99 99 100 99
97 98 99 99 99 99 98 97 94 79 66 68 66 66 60 61 74 64 51 47 63 79 76 65 49 48 62 70 66 76 86 95 92 98 100 100 99 100 97 99 100 96 93 100 90 85 99 95 100 99 100 100 98 97
94 97 98 99 100 99 99 100 95 82 73 79 80 82 82 78 76 78 65 63 63 75 83 76 62 50 60 75 86 77 75 78 86 89 87 82 97 100 99 99 96 72 93 99 98 97 100 100 100 96 100 98 97 97
88 75 88 76 81 95 98 99 99 96 99 90 80 81 81 81 82 79 94 86 74 77 84 91 96 86 69 70 72 74 78 76 74 71 68 81 85 100 98 94 43 76 91 100 98 99 99 96 94 93 96 95 96 83
79 84 73 60 50 34 68 45 69 88 81 88 94 93 98 93 94 100 100 99 99 99 98 98 98 99 95 91 87 79 72 74 78 75 75 76 97 99 98 47 58 66 81 100 100 98 97 96 97 100 97 96 83 39
69 73 70 55 58 46 37 37 25 14 24 28 66 82 90 96 100 98 98 91 92 100 98 98 100 96 97 94 94 93 87 66 69 76 77 94 89 93 56 54 56 64 75 77 91 100 100 97 100 95 72 61 34 27
69 64 52 49 35 33 34 35 40 36 32 33 18 13 51 68 46 42 73 99 98 98 100 98 98 100 100 100 98 94 98 98 97 86 84 85 61 57 50 51 50 44 49 68 82 88 93 99 88 82 80 55 45 31
58 51 39 38 38 33 32 29 26 21 17 16 15 20 30 27 49 96 100 99 99 80 89 69 88 91 73 78 99 98 96 95 96 86 96 88 77 61 58 50 46 64 83 88 84 94 99 96 94 91 81 67 42 31
76 67 59 49 43 38 35 30 26 23 22 25 35 59 89 88 100 93 100 100 92 88 76 66 73 90 94 100 100 98 97 96 87 95 100 87 64 50 59 84 95 89 88 100 100 99 100 99 96 78 47 41 36 33
98 88 79 65 54 45 38 34 32 29 29 55 92 100 99 95 99 98 82 82 86 82 74 76 83 91 100 99 97 94 92 92 92 94 94 58 56 97 99 100 100 98 98 97 97 95 75 52 44 41 38 37 36 34
91 86 78 69 60 51 44 42 38 41 58 64 99 98 84 89 91 97 96 90 88 87 88 93 95 95 97 97 90 70 69 79 88 99 55 64 90 95 94 95 94 92 90 88 80 64 40 33 37 35 34 39 43 44
83 83 77 68 60 55 52 49 48 61 74 81 80 79 87 81 82 77 94 97 94 93 91 97 99 98 96 94 78 66 67 88 74 55 71 94 96 89 79 74 73 67 52 36 30 35 42 39 34 30 32 42 51 57
78 77 78 92 84 56 52 49 56 64 76 87 75 61 55 51 57 60 62 65 60 55 60 90 98 96 90 82 73 64 68 46 38 44 76 86 71 66 73 77 77 63 36 36 42 48 47 42 35 36 36 59 68 62
85 78 85 82 97 89 71 86 96 88 100 99 92 82 68 55 54 44 36 31 39 56 74 98 95 81 64 59 60 48 36 38 50 59 69 78 72 64 57 42 31 32 40 52 56 47 38 39 51 57 64 78 76 61
74 76 71 95 93 78 97 97 94 100 98 97 94 86 79 74 69 62 62 46 41 61 54 48 48 51 53 48 40 40 51 54 60 60 52 43 33 32 34 37 42 58 53 40 35 45 51 58 66 75 84 92 85 87
77 76 75 78 88 94 88 90 94 96 93 90 86 84 78 67 57 57 60 59 60 62 64 64 69 49 36 32 33 33 36 40 38 30 27 27 31 38 46 61 62 43 44 51 62 60 59 72 78 84 84 86 84 92
81 85 91 88 89 92 100 97 93 94 85 78 74 72 69 65 65 61 58 59 60 64 68 64 25 22 26 28 32 36 37 40 44 37 30 30 41 61 61 56 54 60 55 52 54 64 71 73 82 94 94 90 80 97
88 88 90 97 100 98 92 90 83 79 75 69 63 58 52 46 41 37 31 32 33 28 26 23 30 36 36 38 45 43 36 37 35 47 48 41 48 57 62 70 76 72 64 68 80 80 79 77 82 86 92 89 94 96
92 92 93 94 98 92 90 88 80 74 71 68 64 59 52 46 42 42 42 40 36 31 37 40 40 39 42 46 46 41 35 36 41 49 67 81 70 62 68 75 72 66 78 86 86 78 75 80 86 82 81 84 91 97
94 95 95 95 96 96 94 77 77 74 73 65 57 53 46 46 51 56 55 48 45 40 37 36 35 40 40 35 34 32 38 56 61 60 63 71 73 80 86 73 82 95 83 84 86 84 83 86 78 83 78 73 86 100
98 100 99 98 94 88 78 74 69 65 65 62 54 52 54 61 61 58 45 38 37 37 40 43 44 38 32 29 32 42 62 69 70 71 77 74 72 71 79 75 75 82 87 83 86 87 86 81 85 91 95 100 99 98
97 95 90 82 76 74 72 68 65 65 56 58 63 64 66 73 80 70 58 41 38 41 45 48 51 53 50 48 51 59 67 74 79 83 86 80 74 76 74 78 75 74 80 76 86 85 89 93 93 98 100 98 97 99
95 84 75 69 69 64 58 57 58 61 68 73 75 70 66 76 82 78 51 42 49 55 67 72 75 76 71 74 75 73 79 82 84 79 83 75 70 73 73 73 66 59 73 74 79 86 88 95 97 96 96 96 98 98
89 72 71 73 72 72 72 69 69 73 75 74 72 73 82 97 91 66 48 61 71 79 88 96 95 87 87 84 92 97 96 95 89 79 78 77 74 79 85 86 75 68 65 73 82 88 94 94 98 97 96 96 96 94
79 72 66 74 79 80 87 86 83 82 84 86 83 86 98 92 60 60 80 90 95 97 98 99 100 100 94 89 88 87 90 93 92 87 88 82 82 83 94 89 84 80 79 88 94 97 100 98 99 100 98 98 100 100
74 75 78 78 87 96 94 85 75 70 67 77 84 84 81 83 87 81 80 97 100 98 83 72 69 83 84 86 90 94 97 96 94 89 86 74 78 95 92 85 83 88 88 85 86 93 100 98 98 98 98 99 99 98
77 85 94 94 92 85 67 70 67 72 84 92 96 93 84 69 62 68 77 88 92 89 75 67 61 68 81 85 88 93 93 90 93 90 84 86 91 84 79 80 86 87 84 86 93 96 98 99 99 99 98 99 98 98
67 64 65 68 73 72 73 78 88 96 92 84 81 89 80 71 68 77 78 74 72 74 70 69 69 69 85 92 96 95 97 98 100 100 100 92 81 78 83 91 91 86 86 92 95 95 95 96 96 96 97 98 99 99
82 93 100 100 94 90 100 98 96 96 88 83 74 68 65 69 73 81 76 75 74 76 85 96 97 98 98 96 97 96 97 98 99 96 87 85 89 94 96 96 96 94 92 93 97 98 98 98 97 97 98 98 98 99
57 57 50 42 37 42 53 65 67 69 63 62 63 63 67 88 98 98 96 88 90 98 98 99 98 97 97 97 97 97 98 98 96 94 96 99 100 100 100 98 98 97 96 96 97 98 98 98 97 98 98 98 98 98
Wind_Speed
49 44 43 41 37 35 34 33 32 30 30 28 27 26 24 22 21 20 19 18 18 17 16 15 15 14 15 15 15 17 19 22 22 19 16 18 16 15 17 21 21 21 16 22 20 13 15 18 16 28 45 56 51 45
46 49 44 39 35 34 35 34 33 31 30 29 28 27 26 24 22 22 22 21 21 20 18 16 16 15 15 18 18 20 23 24 16 18 22 21 24 30 33 32 33 28 28 31 30 35 40 44 43 40 40 42 44 45
47 50 47 40 36 36 34 34 34 33 32 30 28 28 26 26 25 24 24 24 25 24 25 24 22 22 23 23 22 26 27 26 27 27 30 33 37 40 37 27 23 32 34 39 43 46 43 38 35 34 38 41 45 47
30 41 49 46 42 40 37 35 35 35 35 33 32 31 29 28 28 25 26 25 23 30 32 27 22 21 23 29 28 24 27 31 32 31 31 34 33 31 35 40 44 43 35 43 44 37 37 36 37 41 43 45 48 50
24 36 41 47 44 42 40 39 36 39 35 34 32 30 30 30 27 26 28 29 27 26 27 29 30 32 32 31 35 39 35 28 30 40 40 39 42 39 47 46 42 42 42 37 46 36 42 44 43 44 45 44 45 37
18 23 32 41 47 43 38 32 35 33 32 33 33 31 31 30 30 29 31 30 28 28 34 42 44 47 48 35 29 29 31 34 31 33 38 41 38 35 42 39 44 44 42 40 39 41 37 38 41 44 50 41 37 27
16 12 10 9 9 18 37 36 35 33 31 30 28 33 35 32 31 32 34 33 30 32 39 47 43 23 14 17 16 17 22 23 25 29 36 37 39 41 47 50 46 42 39 36 33 34 39 40 41 36 27 23 28 36
16 16 13 12 15 14 13 12 16 24 23 25 28 29 31 31 32 32 36 32 30 27 28 26 27 19 23 18 23 22 20 20 31 35 37 36 39 40 43 45 39 37 34 37 39 39 37 40 44 45 35 32 37 38
22 18 18 17 16 17 15 16 15 16 19 19 21 25 27 31 37 38 29 23 28 37 34 31 27 28 21 17 16 19 32 36 31 35 33 33 40 39 41 34 29 29 29 32 33 33 35 38 30 29 30 36 41 44
27 23 20 17 15 15 15 17 21 20 18 19 20 24 30 34 29 26 24 28 22 23 35 39 35 31 29 32 40 35 18 18 18 27 24 29 36 32 21 19 24 27 28 29 31 32 33 33 32 36 36 41 46 45
26 24 23 24 22 18 15 14 14 16 19 20 23 26 27 25 24 25 19 17 18 20 24 33 32 37 41 36 28 17 14 11 10 15 12 13 21 19 15 21 24 23 24 29 30 29 26 27 33 37 41 45 49 45
24 23 22 22 21 20 17 16 15 14 16 19 19 21 18 15 10 10 12 13 14 14 17 20 18 17 20 20 16 13 16 9 8 10 7 7 12 20 18 17 19 23 26 23 22 24 28 31 38 44 44 44 42 42
24 23 21 21 19 18 18 18 15 15 14 14 16 16 11 13 16 11 15 14 14 18 21 17 15 11 15 16 12 8 7 11 10 7 7 13 17 13 14 14 13 18 22 26 29 36 41 45 47 44 43 43 43 43
25 24 23 22 21 18 18 16 16 14 11 12 12 12 10 9 11 21 19 15 18 14 13 12 12 9 12 10 10 7 9 7 6 7 16 19 18 18 19 20 24 28 32 37 42 46 49 46 43 43 44 43 43 43
25 24 23 22 20 18 17 17 17 14 13 12 9 9 16 16 12 8 12 16 15 14 13 11 15 16 15 10 7 9 6 7 8 11 15 19 19 23 29 34 38 41 44 47 46 42 40 41 43 45 45 44 40 38
26 25 22 17 18 18 20 20 18 17 18 17 14 13 12 10 12 13 11 12 12 13 13 11 13 9 11 9 11 10 8 14 17 18 18 23 30 37 40 40 40 45 43 39 38 39 41 44 44 45 46 42 36 33
21 21 19 13 16 16 16 17 16 19 16 15 17 21 20 15 10 10 11 12 14 14 14 13 10 9 9 10 13 17 26 25 24 25 28 29 36 42 45 46 42 39 38 37 38 40 42 42 41 41 40 35 31 30
18 16 17 27 27 22 19 17 17 18 21 20 16 18 18 16 14 13 13 12 11 13 13 18 21 23 21 24 35 35 31 32 32 35 36 37 40 41 39 39 38 37 38 38 39 40 38 37 37 36 35 31 28 26
18 20 19 19 19 19 18 17 20 18 22 21 21 19 18 15 13 12 13 15 16 19 22 27 20 29 37 36 32 30 29 31 32 35 35 37 39 39 37 34 36 34 34 37 36 37 37 35 33 34 32 30 27 24
18 18 17 17 16 16 18 14 16 17 16 18 17 15 15 14 15 17 18 20 23 26 30 35 38 35 32 24 25 28 29 31 34 38 39 36 34 34 34 33 32 35 36 36 38 36 37 33 28 29 28 25 24 22
18 19 19 19 19 18 16 10 9 9 9 11 11 12 13 13 14 14 16 18 23 30 35 31 26 25 25 30 32 33 34 33 34 33 35 38 35 33 28 29 31 32 33 38 33 29 24 25 24 24 21 19 19 16
17 16 16 18 17 15 14 13 10 10 12 15 15 16 17 15 14 14 16 22 29 30 27 25 27 28 30 31 30 28 29 30 32 32 28 27 29 29 30 29 33 31 31 32 29 29 27 24 19 19 19 19 13 12
17 17 17 15 13 11 10 12 14 15 13 15 10 11 14 14 14 13 19 22 24 25 25 26 25 26 27 26 27 29 27 23 23 23 24 25 26 27 30 31 31 31 30 28 28 29 26 21 17 17 16 13 13 17
15 15 16 10 12 11 12 13 14 11 13 13 13 15 17 19 21 25 30 29 25 21 19 18 20 23 24 27 28 25 19 18 22 24 23 25 25 25 27 28 28 29 29 30 28 25 23 23 21 17 15 15 17 17
15 12 9 11 12 13 16 15 13 13 15 15 18 21 23 22 23 27 30 26 18 17 18 17 20 22 24 24 21 17 17 21 22 25 25 26 27 26 27 30 29 28 28 28 25 22 20 17 15 14 14 15 11 10
13 9 8 10 12 13 12 14 14 14 15 15 20 21 20 22 26 25 30 20 13 11 14 17 17 16 16 18 20 20 24 28 30 32 30 31 30 31 31 32 26 23 26 26 24 22 19 16 14 15 14 13 14 15
16 12 15 19 18 16 16 15 16 18 19 21 23 22 23 23 25 28 24 21 16 15 18 20 24 25 26 26 27 29 30 33 35 34 34 32 30 30 31 29 27 26 25 24 24 22 20 17 16 15 15 15 15 14
25 27 27 23 24 23 22 24 26 28 27 26 26 29 30 30 32 27 24 24 25 27 29 32 34 36 37 34 33 32 35 36 38 36 32 28 28 30 30 30 29 28 27 25 24 22 21 20 17 18 18 17 17 18
27 28 29 28 27 27 30 32 35 35 31 29 29 30 31 30 29 28 24 25 27 30 32 31 29 31 33 33 34 36 36 36 34 30 27 27 28 28 29 29 28 26 24 24 25 24 23 23 22 22 23 23 23 23
32 30 31 32 32 34 32 29 28 23 23 25 26 30 32 31 28 28 30 30 28 28 25 27 30 31 30 29 29 29 28 27 26 25 26 27 28 28 27 25 24 23 23 22 21 19 20 23 25 27 26 26 24 24
24 25 27 28 30 27 25 25 27 28 28 29 31 35 38 36 33 33 32 31 30 31 32 33 31 31 30 29 27 27 25 24 24 25 26 26 24 24 23 23 22 22 21 20 19 19 19 19 18 16 15 14 17 18
26 27 28 30 30 27 27 29 30 31 32 33 34 33 32 30 29 30 27 24 24 23 23 24 25 26 28 27 26 26 25 24 23 22 22 22 22 22 21 21 20 20 20 19 18 18 18 17 16 16 15 16 17 18
24 24 25 27 28 29 28 27 30 32 31 29 27 25 23 22 23 26 25 23 22 23 21 20 21 21 20 20 20 20 19 19 19 20 21 21 21 21 21 21 22 22 22 22 22 22 21 21 21 21 22 22 22 23
Wind_Direction
208 211 211 212 213 218 219 221 222 226 229 226 228 230 228 228 234 241 247 250 254 258 261 259 257 257 261 265 268 276 281 283 280 279 271 283 272 278 257 274 281 276 280 276 277 267 274 311 287 295 298 301 304 302
207 203 203 203 209 218 222 223 224 223 228 230 228 228 232 234 234 241 247 251 254 255 257 258 256 252 258 264 266 265 269 272 267 276 280 283 278 280 281 272 280 258 271 281 275 280 285 297 300 303 305 299 303 301
214 209 208 215 217 219 224 226 229 229 227 226 230 233 234 237 237 238 245 249 251 254 261 256 258 258 261 268 270 276 280 276 275 286 282 278 272 280 274 277 276 283 293 275 291 297 297 307 310 311 309 305 302 303
205 207 221 226 221 219 225 228 234 234 230 231 229 233 234 239 240 240 245 252 255 262 263 253 247 259 266 274 280 282 286 273 278 278 285 284 275 285 273 280 287 293 287 288 298 304 316 314 317 308 303 300 300 299
200 204 203 204 213 223 231 227 230 229 229 231 233 234 235 237 241 244 247 250 251 254 265 270 263 267 276 276 269 280 288 269 263 275 278 281 283 278 279 289 276 289 295 289 294 306 311 312 306 303 302 301 297 300
167 181 200 207 216 214 203 210 216 226 229 231 234 234 235 235 239 246 248 250 254 257 267 273 275 276 288 280 276 273 273 271 270 274 274 278 278 280 275 277 289 299 297 302 288 302 305 301 298 301 298 298 319 312
163 161 164 169 180 203 210 219 223 222 221 235 240 233 236 241 244 247 250 268 267 268 270 274 279 284 271 284 282 257 281 282 277 281 276 273 273 270 276 281 306 304 303 302 300 300 296 297 296 298 303 312 328 332
195 174 184 198 192 192 181 185 206 214 218 227 226 232 233 238 246 248 259 263 255 263 257 263 265 263 287 280 274 284 288 287 289 282 277 275 273 273 277 298 307 308 301 294 300 296 297 298 298 306 297 319 331 329
198 197 197 207 202 206 200 197 205 204 210 216 216 218 221 227 236 238 244 256 257 248 246 245 260 282 279 269 266 281 294 291 285 271 272 267 269 267 290 307 306 307 297 295 294 292 296 299 288 308 330 328 331 329
206 210 208 214 225 224 220 215 212 221 220 220 221 222 224 231 242 249 246 251 252 247 248 259 269 256 265 275 284 299 281 240 250 262 264 256 268 289 311 297 292 298 300 298 299 301 302 299 306 307 316 325 324 323
209 214 214 215 222 227 228 230 229 226 224 220 221 222 230 238 236 240 241 236 238 241 251 255 254 265 272 277 280 260 264 256 253 266 245 259 274 313 296 290 299 301 303 301 301 301 294 297 299 302 310 315 318 319
208 213 216 219 220 228 234 234 239 239 235 227 222 220 231 229 218 217 220 220 226 233 241 253 253 251 258 262 253 245 242 244 245 254 233 258 290 291 298 302 300 308 304 289 272 272 280 294 307 315 315 315 315 315
210 217 219 222 222 225 230 237 241 240 233 219 210 203 210 217 219 224 224 218 215 232 244 253 257 247 240 240 238 240 233 236 258 233 243 272 272 278 285 290 287 278 274 268 278 302 310 307 309 313 314 315 316 316
213 219 221 223 225 228 234 240 245 245 239 216 189 197 209 209 218 221 227 232 235 239 248 261 262 240 237 234 239 241 246 245 233 240 256 255 260 270 275 278 281 285 289 294 297 300 302 306 308 311 313 313 313 312
213 216 218 222 225 229 234 240 241 232 218 207 200 207 221 226 226 222 223 230 238 249 257 248 230 241 254 226 226 225 233 226 229 247 251 246 270 290 296 297 302 305 305 304 303 303 305 308 310 311 310 309 311 310
221 223 224 222 233 233 234 237 236 228 218 215 212 222 235 236 240 245 248 250 259 259 259 251 242 239 236 228 224 221 239 258 277 285 270 271 289 297 297 297 297 299 301 301 302 304 306 309 310 310 311 310 305 299
216 222 218 209 198 220 226 218 223 220 213 220 228 232 242 249 250 251 256 256 252 248 239 233 234 232 236 238 233 245 263 290 284 281 280 283 288 291 293 297 300 304 306 306 306 306 305 306 308 310 311 308 302 298
215 213 203 203 217 224 213 224 218 217 224 229 234 245 250 256 258 255 251 248 239 241 242 248 258 254 251 260 270 282 283 285 284 286 287 287 289 293 299 305 307 310 308 306 306 305 305 306 307 308 309 308 303 307
199 206 214 215 214 217 219 216 214 226 233 240 247 254 260 262 260 255 253 254 255 259 260 261 258 265 273 283 296 299 298 296 295 289 289 294 301 304 305 306 307 308 308 312 314 312 308 309 307 306 302 302 301 306
186 189 192 196 192 198 211 215 219 236 247 253 259 263 266 264 260 259 258 257 258 256 255 257 270 285 296 295 298 295 289 287 290 292 296 300 302 305 306 308 307 310 310 309 310 312 306 305 307 308 304 296 298 303
188 191 191 192 203 213 219 222 217 238 252 265 270 266 267 269 269 267 263 257 253 253 259 279 296 296 292 290 289 289 290 288 288 290 294 301 304 304 308 306 310 310 313 316 313 315 313 314 316 312 310 305 302 295
191 190 193 197 203 210 223 232 240 255 264 268 272 279 282 284 279 265 261 256 262 272 289 295 295 290 283 282 286 285 287 288 288 292 297 298 300 306 304 306 310 312 316 319 317 317 318 313 310 314 312 307 298 291
186 190 195 206 213 221 242 245 250 253 256 269 281 287 286 292 293 293 275 274 280 290 291 287 284 282 281 284 280 281 289 294 294 297 298 302 304 304 307 312 312 309 316 316 317 318 318 316 311 310 309 306 299 283
177 182 197 209 217 227 241 240 246 252 257 272 290 292 291 295 299 295 290 293 303 306 296 290 289 285 278 278 284 289 286 285 292 299 303 301 301 305 311 312 306 311 309 312 317 316 312 317 321 322 308 283 279 282
186 194 209 218 220 230 239 248 257 264 278 288 286 285 290 297 290 295 294 303 314 302 294 296 297 293 290 288 292 282 284 292 300 308 308 300 297 303 310 314 308 302 309 311 316 316 310 314 318 306 295 291 282 270
202 212 220 224 227 234 252 265 279 289 290 280 275 286 293 296 294 288 300 317 311 312 309 310 303 297 303 304 299 294 290 293 297 303 307 305 299 304 308 312 312 309 305 303 308 311 310 303 306 307 299 290 289 287
217 225 238 242 250 260 267 279 284 279 281 282 289 287 284 277 284 291 309 313 310 299 298 299 302 298 297 297 292 287 288 289 293 295 299 304 302 304 307 305 304 308 308 303 300 302 302 297 292 299 300 295 291 287
237 242 250 262 266 274 277 279 280 280 281 281 281 275 270 274 287 300 299 291 285 282 282 283 282 283 287 290 289 286 288 292 294 298 299 298 300 302 302 302 304 304 303 299 295 293 294 292 284 283 287 287 286 288
246 255 260 266 271 270 271 276 281 284 292 291 285 281 281 283 285 285 291 291 285 276 273 281 288 289 289 288 286 287 289 290 291 293 293 294 298 300 302 302 301 301 300 297 292 287 282 282 282 279 278 277 281 283
263 272 275 279 279 278 284 288 289 292 287 283 279 279 282 283 288 293 290 286 278 276 277 290 295 293 290 288 285 286 287 287 287 291 294 297 298 299 300 300 300 302 303 300 298 296 290 284 281 277 279 273 274 273
275 277 278 282 286 288 290 286 280 280 277 275 275 275 278 285 285 281 279 278 278 275 277 285 287 286 286 287 286 284 287 291 291 291 292 295 298 301 301 302 304 307 306 303 303 303 303 300 298 298 293 278 276 278
286 288 289 289 290 291 288 285 284 282 281 280 280 282 285 284 280 279 278 280 285 286 284 285 289 291 285 281 280 283 285 287 288 291 295 298 300 300 301 303 306 307 307 305 303 303 302 303 301 299 296 293 291 291
285 287 290 291 289 287 286 285 287 292 288 285 285 284 273 269 271 275 283 286 287 292 291 290 290 290 288 285 283 283 286 289 293 296 298 299 300 301 303 303 302 302 302 301 300 300 298 298 298 296 295 295 295 294